Location: Allison Elementary School
(34.0784°N, 117.7317°W)
Time: 21:25:36
(UTC+00:00)

Cosmos 1862 - Pass Details

Date: 15 November 2019
Orbit: 538 x 557 km, 82.5° (Epoch: 06 December)

Event Time Altitude Azimuth Distance (km) Brightness Sun altitude
Rises 01:42:23 0° 6° (N) 2,699 6.6 -11.6°
Reaches altitude 10° 01:44:45 10° 18° (NNE) 1,805 5.6 -12.0°
Maximum altitude 01:48:13 29° 79° (ENE) 1,022 4.1 -12.7°
Drops below altitude 10° 01:51:41 10° 140° (SE) 1,802 5.7 -13.4°
Sets 01:54:03 0° 151° (SSE) 2,693 6.7 -13.9°
